TIMESTAMP,CO2_1_1_1,H2O_1_1_1,TAU_1_1_1,TAU_SSITC_TEST_1_1_1,H_1_1_1,H_SSITC_TEST_1_1_1,LE_1_1_1,LE_SSITC_TEST_1_1_1,FC_1_1_1,FC_SSITC_TEST_1_1_1,WD_0_0_1,WS_0_0_1,WS_MAX_0_0_1,U_SIGMA_0_0_1,V_SIGMA_0_0_1,W_SIGMA_0_0_1,USTAR_0_0_1,MO_LENGTH_0_0_1,ZL_0_0_1,FETCH_MAX_0_0_1,FETCH_70_0_0_1,FETCH_80_0_0_1,FETCH_90_0_0_1,PA_0_0_1,RH_0_0_1,TA_0_0_1,VPD_0_0_1,T_SONIC_0_0_1,T_SONIC_SIGMA_0_0_1
[yyyymmddHHMMSS],[mmolCO2 mol-1],[mmolH2O mol-1],[kg m-1 s-2],[#],[W m-2],[#],[W m-2],[#],[umolCO2 m-2 s-1],[#],[Decimal degrees],[m s-1],[m s-1],[m s-1],[m s-1],[m s-1],[m s-1],[m],[#],[m],[m],[m],[m],[kPa],[%],[deg C],[hPa],[deg C],[deg C]
20220518003000,418.70849025480265,6.9464910702797589,0.38464613263286379,0,10.113730938386956,1,52.036682150993975,0,1.0831480580186226,0,9.1404980979215793,2.3934870180939756,7.6911918227986522,1.1303469186604369,0.98662864047332677,0.65233116944858260,0.58291276978122453,-1630.7185375475278,-1.1651305582491570E-002,114.43615337180843,209.22578590283430,250.38982871434786,313.45835321240384,93.769239249185716,39.146206896551725,14.670344827586234,10.128387768972564,14.450816168118195,0.30469841544661047
20220518010000,418.66069750221544,6.9049937457691657,0.26597000221731687,0,-5.3422243722826126,2,21.150388699436622,1,0.71698113347797920,1,359.45604490431373,3.0027522075696500,7.8835994297065000,1.0970725280564406,0.92332970447110385,0.59576221063738244,0.48396630705420013,1767.0195414486011,1.0752569258189310E-002,106.03485338141874,193.86553006319869,232.00752553838532,290.44589095954643,93.784129098090290,41.099666666666664,13.828333333333319,9.2830047273032950,13.505335433960056,0.28404867585668703
20220518013000,419.49640963517169,7.0672397469190162,0.30191346916958628,0,-19.123641197463606,0,33.498173988754075,0,2.1312070939938179,0,5.0743200975082914,2.3149601299473468,6.3142140400862781,1.0081624526233581,0.85790210015418822,0.55092031281594567,0.51456394055274568,593.34217222627331,3.2021994878116092E-002,118.55922462174210,216.76407513384291,259.41123561793108,324.75208413660317,93.795875016493056,45.408666666666669,12.658666666666647,7.9714072016988826,12.453034716288244,0.25100138450524634
20220518020000,420.38452724292125,7.4594720889885879,0.22674446375434493,0,-8.3361217580820686,1,-0.15889537513329990,2,1.4854055685651539,0,10.111888994914835,2.2225501879708438,6.6920057627675904,0.92265589951069282,0.75098546939815691,0.52878096205760194,0.44536480981583765,882.57367086206000,2.1527947895207001E-002,109.14578535150658,199.55330588538240,238.81434051932453,298.96721558963299,93.792402111762158,50.439333333333330,11.882000000000005,6.8763826069612630,11.745669211493578,0.21108395340658020
20220518023000,421.59562653488990,7.7415331737859647,0.40724404233609773,0,-6.9632063871724394,2,31.416221011480850,0,2.0598877278370007,0,15.567825530683535,2.1981507555752691,6.6226251588535092,1.1182701982644743,0.64250308884883378,0.57094828887480198,0.59605698135062590,2533.2455069248535,7.5002600214080306E-003,129.60080600158324,236.95160742795517,283.57055580629253,354.99668616320702,93.805181198784723,55.059333333333335,11.120666666666693,5.9289644613021357,11.007005172729578,0.22737932737390956
20220518030000,423.02677819036734,7.7169154335114980,0.22700708902455849,0,-28.683234346824804,1,19.411849713151273,0,2.8060587075525447,1,23.647634076463106,1.6939966051305650,5.4723994342003319,0.87705769746180684,0.53055671176549646,0.45992101873565555,0.44440673745205261,254.90092953991302,7.4538763096291233E-002,121.82398489649700,222.73309815797947,266.55463166807016,333.69476832516534,93.817997361398554,57.673000000000002,10.378333333333330,5.3148538164082098,10.288110263395765,0.19451183494149940
20220518033000,423.72853852279894,7.6518634960461078,0.20756795562951424,0,-13.498426704197223,1,37.209561779499964,1,3.7410865819501833,0,32.069659252756793,2.0971391894139293,4.9277408143939043,0.90409049727157520,0.59038770942764318,0.45408399074901096,0.42454452091972633,472.25526172648279,4.0232479211643545E-002,118.65458906689524,216.93843175451266,259.61989596157048,325.01330212630262,93.830505993489581,59.141666666666666,9.8779999999999859,4.9615210645321222,9.8181962653266055,0.12460138641069356
20220518040000,424.13219864691973,7.5342235708329799,0.12667694138804811,0,-31.571532282123449,0,19.363906130516469,1,2.3635664385655484,1,56.376541946765144,2.0058987980315437,4.5647825612562505,0.76516404861849818,0.55581795178047599,0.38038013128714138,0.33139703784433833,96.046040105925258,0.19782179441282197,112.13973833349813,205.02720680879142,245.36520187084176,307.16811664824581,93.845810801432293,59.780666666666669,9.4896666666666647,4.7582141818989090,9.4435942874484908,0.15597256306969212
20220518043000,424.99341469197782,7.9378673171239393,0.17680230673118741,0,-33.761599525179214,0,-27.922522344870057,2,0.56841014714006433,2,93.088702233509196,2.3066590861997516,5.3050506846829961,0.83400294324149649,0.67503130433140857,0.46833340290900266,0.39144505836294974,148.03416446743290,0.12834875022501949,108.47944246885992,198.33501857674196,237.35636176580221,297.14199920027573,93.850427657986117,63.515666666666668,9.3653333333333535,4.2803780138938592,9.3971686672634860,0.17896284692709724
20220518050000,425.32834444706344,8.6766067516772978,0.28439926709220015,0,-33.890681804995701,0,-14.110785347790101,1,1.8645048334105894,0,107.75158554068796,3.1199646419161100,7.0218854368154524,1.0742352352088929,0.83235021780096596,0.62666627695552235,0.49689632587237942,301.63609567328723,6.2989808821088761E-002,104.00122832743151,190.14741487306515,227.55789127566541,284.87547687543093,93.831534554470480,67.790999999999997,9.7169999999999845,3.8691931815755924,9.7877841542562010,0.18706076593053597
20220518053000,424.83391193779153,8.9372592209782926,0.64854891512638990,0,-31.896557738430175,0,-0.59261481558546114,2,4.1409807103220393,0,115.69360879489146,3.6148217250708186,10.921105626292727,1.5118552800157070,1.1386169791915051,0.86175154156929590,0.75053896784711105,1104.4311832410690,1.7203425879593972E-002,112.11090055543029,204.97448215314583,245.30210392409893,307.08912550639849,93.824547287395120,69.440666666666672,9.7986666666666906,3.6911976909051565,9.8183091501239232,0.13050519064654550
20220518060000,424.10254226233633,8.8362706891420455,0.63420830987256194,0,-23.044241358486474,0,3.9474159044497177,1,2.6050160807487539,0,115.19595693733973,3.9048101196388978,10.173283821838242,1.5748181365068226,1.0857189989984308,0.87583886121763932,0.74194998188473582,1476.4836538490429,1.2868412020999306E-002,109.65166581604164,200.47821671685148,239.92122255907051,300.35290055599393,93.798461235026039,69.819333333333333,9.5443333333333271,3.5837221894187805,9.5173154186672377,0.13622925857930457
20220518063000,423.96486527781565,8.6039297137288315,0.56090052638432841,0,-23.253237370793030,0,7.8498686568193881,0,3.3015081780067534,0,118.07971173483848,3.4748377779482036,8.4629557201074999,1.4617715842068320,1.1255485630569599,0.83611593568000575,0.69714984405196978,1213.5636013290173,1.5656369372970987E-002,108.26862138221915,197.94957039242567,236.89507873401553,296.56452758231461,93.774694411241299,70.460666666666668,9.0093333333333590,3.3833967859170673,8.9696871693929552,0.17703915331913514
20220518070000,424.36924500794822,8.5007442337475823,0.60773295354609225,0,-19.761617359304143,0,9.6958605138640603,0,3.4119632347495159,0,119.20959202839271,3.3870748477817560,9.8098365105038319,1.5748765373576432,1.1228894653098171,0.84697527968190489,0.72524074726995313,1607.0049593732383,1.1823236692069918E-002,110.59718400648637,202.20692552654447,241.99004548588238,302.94282136490318,93.725309559244792,71.834666666666664,8.5376666666666665,3.1247201419490911,8.4877501407199247,0.14636861820809194
20220518073000,425.04517475515667,8.4637227367328016,0.60728101330370188,0,-23.837629174860645,0,5.1159939887514456,0,3.2256581857336881,0,121.43778210793644,2.9536263250298029,7.7405149862795399,1.4012590906162432,0.97234012784683221,0.78491216800990982,0.72465347444242012,1328.7146456480082,1.4299533810537465E-002,117.46334213555282,214.76045243529643,257.01341098014854,321.75029222632190,93.699812704861102,73.068666666666672,8.2183333333333053,2.9237706531959793,8.1826262452867695,9.4577320487849087E-002
20220518080000,425.81904341292437,8.5115378763256135,0.55797470212722644,0,-33.290851143736418,0,4.9388610774290767,1,3.5247016838075087,0,126.57333189305106,3.0269215503969300,8.6743279514381708,1.4199211657607598,0.95276241885256796,0.75342669071270774,0.69455132543869957,837.41012983854580,2.2689001867774436E-002,117.32365233038577,214.50505491967274,256.70776538338265,321.36766020839690,93.652816292100695,74.430000000000007,8.0223333333333358,2.7392272679593339,7.9993061167399446,0.10388024834643360
20220518083000,426.66804210738201,8.6071197433917881,0.48296414472453025,0,-32.166005559749600,0,0.30583807751996672,2,3.2939965078787008,0,132.44622775345903,2.5548148426290935,7.1640030141606559,1.1475665457701447,0.98210628229006325,0.75583989891434467,0.64621325807165975,697.85289049266055,2.7226368563991535E-002,110.46170444826161,201.95922568512071,241.69361203912035,302.57172186562957,93.615705758251380,75.718999999999994,7.9283333333333417,2.5845488151273481,7.9242118332249447,0.10118053647605325
20220518090000,427.34136609152216,8.6725364280876338,0.28392439482988202,0,-16.589261979030898,0,2.6680967480300781,1,2.6255750623800505,0,140.99579858798649,2.7567808523082085,7.4192918987118732,1.2015580798226666,0.98432997760988505,0.76222060225176425,0.49556804242322711,610.26001401554959,3.1134269923698252E-002,88.730511912881099,162.22767492206535,194.14509335540069,243.04661878609733,93.613657951605902,75.801000000000002,8.0233333333333121,2.5925331130411600,8.0152333128187365,7.3959386109456168E-002
20220518093000,428.23030627374038,8.7100140973899371,0.42706758827701863,0,-12.683692702146164,0,10.527429298833306,1,4.6689013831149788,1,142.57722988781757,2.5124838173063786,7.2329526829656814,1.2121762595237522,0.91575311066980236,0.74551790475010316,0.60774837533374626,1472.3793978537683,1.2904282705731676E-002,106.33285691549456,194.41037556684174,232.65956645076275,291.26216880785358,93.631493055338538,76.063666666666663,8.0386666666666429,2.5670696563480342,8.0275923063490495,6.5200741587943215E-002
20220518100000,428.92997054141739,8.8250364234213716,0.14859622774413017,0,-14.483789684890395,0,2.5227934550801470,1,3.9792076589304881,0,153.64451966311060,2.3205365582199482,5.6551737454036752,0.91841006507557499,0.76703152498422955,0.58400419837791928,0.35853564485325035,264.77200260151017,7.1759853055897202E-002,84.751617480277034,154.95298689597269,185.43914976941468,232.14781050129062,93.647818365234372,76.531333333333336,8.1440000000000055,2.5350106435453812,8.1590323045518858,8.6898440334832877E-002
20220518103000,429.52551506969519,8.8914880984115356,0.31321460597934170,0,-16.339452092079561,0,8.2563611170555600,0,5.2552121307592401,0,143.76620568927720,2.6381217437823907,6.6818172264999083,1.0273829107011478,0.82012211915844679,0.63705578705790344,0.52067767742903082,718.71493253661015,2.6436072411828136E-002,106.55359202351387,194.81394974415295,233.14254166672114,291.86679646630944,93.625049811197911,76.674333333333337,8.2233333333333576,2.5331858243366017,8.2221133821275885,7.0805556296152303E-002
20220518110000,430.56922092439021,8.8886433560611771,0.33543839456206037,0,-7.4853152537093148,1,5.6411295207016448,0,3.5811279814544776,0,134.00531844573237,2.4113000703313565,5.7811571766031804,1.0509968741677851,0.79136302268725389,0.61032683618917372,0.53862821976398201,1736.6297712327334,1.0940731475836093E-002,113.30164341447764,207.15153986744107,247.90748597981164,310.35075467426913,93.614413705078135,77.932333333333332,7.9776666666666642,2.3568580041721181,7.9589961030748100,5.3950251450330805E-002
20220518113000,430.80272557556304,8.9917749390055199,0.36044547912715968,0,6.7783778996624768,0,9.3540851244389494,0,2.5670548882719837,0,145.00932001274512,2.8224907746624788,6.9753142161852502,1.0900957551175969,0.91666415451414629,0.72222735033220720,0.55852069792097891,-2138.1169877514776,-8.8863238582567450E-003,101.94059702153997,186.37992364124827,223.04916650186757,279.23108848338097,93.608609407769094,78.038333333333341,8.1263333333333208,2.3693815974345136,8.1058436118232180,7.4898391481702117E-002
20220518120000,431.10745970494912,9.1222535644384219,0.59454685344610947,0,21.551871332604716,0,11.029463966471402,0,0.70075033826036215,0,150.27396954770896,2.6661519707985462,7.5561313104359424,1.3925398100509636,1.0059328348875425,0.78745962569871453,0.71775394461549702,-1427.0013765655588,-1.3314633266667427E-002,116.26600053847768,212.57133012332682,254.39359068236084,318.47058809267747,93.587993414930565,77.741333333333330,8.3913333333333071,2.4450397038085931,8.3632303373549348,0.10648759534343746
20220518123000,431.45038009502821,9.3009249107691048,0.50960200798816024,0,31.662980063185447,0,10.042293972677793,0,-0.22862849763795559,1,156.05564455209719,2.8041402778766806,7.7645700683800687,1.2479669282177477,1.0931010827076100,0.83513623280313931,0.66502067181616198,-772.39924286429380,-2.4598677659939387E-002,104.35593537059268,190.79593247597288,228.33400121263904,285.84707441996648,93.554844557471114,77.545000000000002,8.7096666666666920,2.5203923808902471,8.6957945988797860,0.15432645149201141
20220518130000,431.07175578084923,9.6250815810967332,0.28752160992751591,0,32.248300152822040,0,5.3811691651918059,0,-0.13083555223713064,0,162.04888465586782,2.9108315358573558,6.9650280572079692,1.1628142703815449,1.0112492464757215,0.74238294226463564,0.50009129725210211,-322.50004732487827,-5.8914720036800143E-002,91.283429838689841,166.89522310185546,199.73095641817045,250.03945649806093,93.546516555989584,77.144999999999996,9.2923333333333176,2.6682220008191679,9.3286936238607723,0.36583669405991259
20220518133000,430.07460830745117,10.113687374539122,0.34789454636175965,0,42.760329798933995,1,-7.3900216144905349,2,-0.11899142321462314,2,163.83298250105551,2.4160647259507271,7.2443788472666730,1.1673730237356401,1.1225924853249456,0.78954186063408816,0.55135969295192144,-325.88210600671169,-5.8303293276276688E-002,93.951297519687841,171.77293609547561,205.56833308625230,257.34715939818517,93.505289412109391,75.150999999999996,10.414666666666676,3.1277809856835530,10.424645512898792,0.27763112519107364
20220518140000,428.86785111605070,10.557165484321608,0.23752312371696993,1,94.999719974542018,0,28.192539348026962,1,-1.5739446353528102,1,167.50325635886790,2.1741229853195665,6.1355812771079545,1.0652467652351310,1.0179760605118817,0.70323607974621449,0.45644678012294893,-83.210980874301171,-0.22833524854972534,88.610686795749046,162.00859639168695,193.88291230797515,242.71839922625540,93.473931326605907,73.680333333333337,11.351999999999975,3.5260065918385441,11.390319656372071,0.40176025468931065
20220518143000,426.73634150753253,10.974684810405725,0.41134943543036395,0,189.72687287900558,0,39.782075867645275,1,-3.9886372856489811,1,180.48029414711402,3.1589429842572803,8.1783519936361984,1.3415426079955701,1.4292052601145413,0.96414033418571743,0.60235840656823381,-95.730536835487982,-0.19847376425613616,85.946199883947557,157.13706452239904,188.05293286703778,235.41995677672918,93.425637635569473,69.809666666666672,12.751666666666665,4.4353403352851801,12.758034327030487,0.52872234337290902
20220518150000,424.54370793497685,11.149880578306655,0.77907302373395615,0,218.27095113176696,0,51.264518057242306,0,-5.0035824389290893,1,194.96881403660066,2.7954245442180912,8.6362577559482290,1.5510267594804499,1.3378094780142282,0.97737251230055644,0.82989368843342959,-217.60233462593047,-8.7315239667175318E-002,109.85625062993368,200.85226300562590,240.36886043397834,300.91329005673595,93.413560442799493,68.268666666666661,13.333333333333314,4.8424318906200323,13.332187449061109,0.42775813998102213
20220518153000,422.84811329548074,11.065179603892691,0.47564779333084800,0,144.96682103482834,0,46.050691237727037,0,-0.93437601582956509,2,172.86117820556791,3.7147096750072750,10.798754436568931,1.6040358317568937,1.4867289408704110,0.95331688321676411,0.64893751026896718,-156.61568331979399,-0.12131607510343552,92.050759220007848,168.29814593805895,201.40989674161403,252.14129055270584,93.385351717031071,66.185666666666663,13.687333333333356,5.2806889567299757,13.614622165727837,0.43366509936139985
20220518160000,420.62206199503174,10.950643880490603,0.99174344119611479,0,305.28730532482462,0,74.975037234375179,0,-4.3957506895080405,1,172.90716061631770,3.9072653154284267,10.247836460250937,1.9463451924863364,1.6662611632559445,1.1788831289513571,0.93878880517512930,-225.07839501408600,-8.4415032365993764E-002,104.35965133692285,190.80272644757110,228.34213186143757,285.85725302744436,93.338336034304319,61.610333333333337,14.624333333333311,6.3705506369079661,14.577494879246387,0.56464957161987217
20220518163000,419.64744010258715,10.912119397721192,0.70351389726430336,0,214.11126654671239,0,60.309264747819483,0,-1.5289687447786038,1,180.59034936642809,3.1780642679170343,9.3666176058468977,1.4814702993987139,1.4829630874813258,1.0319458896619269,0.79158036457619430,-192.34436012985230,-9.8781165130981938E-002,101.28039108027524,185.17285661873103,221.60461556513366,277.42268212724014,93.306112949001744,59.215333333333334,15.179666666666662,7.0145275431956655,15.126534496731210,0.53209534519559065
20220518170000,419.10666719100584,10.861174216380389,0.77597693524726130,0,270.75917961264116,0,80.515248770481094,0,-3.5586810947931586,1,180.61400531289243,3.3028909694352309,9.4823711657549765,1.6315125402781558,1.6710635259318742,1.1185240286821114,0.83209241245944854,-176.63131641133529,-0.10756869385354746,98.827064307797983,180.68739283020011,216.23666101369872,270.70264001350313,93.276648895182305,57.314000000000000,15.610333333333358,7.5472882122230587,15.527025953504847,0.51858789220715695
20220518173000,419.38706348610629,10.992362837397412,0.75785632134130554,0,200.54892605663727,0,55.888933723863353,0,-3.7549263422451942,0,176.30744677172046,2.9422835212955878,9.7200983427946230,1.6334558347459511,1.4134405595705988,0.99847357933870640,0.82238769331957140,-230.17103427303078,-8.2547311220151368E-002,107.21286952994625,196.01931929168754,234.58506115944198,293.67265969560589,93.245372389973951,58.222666666666669,15.547000000000025,7.3567067504502415,15.514204729716027,0.36981269253432941
20220518180000,419.47909100369679,10.989028969395831,1.3444834879111955,0,360.98179493247221,0,107.06680777660353,0,-3.3681462472124433,1,168.45434896857998,3.2373926251700706,12.571645581705040,2.1750991674068989,1.6133399826549017,1.1718429038378200,1.0955991027038512,-302.25846331409821,-6.2860109165101360E-002,118.65354511679401,216.93652308077679,259.61761176659076,325.01044258524041,93.205640288845487,58.187666666666665,15.545000000000016,7.3619260980702510,15.383152401394341,0.56519199824297917
20220518183000,418.73571987973150,10.981652378424444,1.0991711460020592,0,241.21388962255617,0,65.543912650190762,0,-2.5736713351499638,0,169.03982743178494,3.3218901526059690,10.182817765765208,1.8205889489660469,1.5018438449728393,1.1725559436713417,0.98956636461713721,-333.27596804473717,-5.7009811152808780E-002,109.32109724232782,199.87383193466346,239.19792833681871,299.44742201894940,93.196361600694459,60.588000000000001,14.903999999999996,6.6592448960923560,14.844034347534262,0.39430834849894680
20220518190000,418.12409986872433,11.046019537034278,0.76775595000026942,0,176.90906857484407,0,61.154527633169373,0,-2.7091377366703435,0,171.47642298717585,4.1025883038993429,10.435420283855024,1.7841517634024258,1.7638361174419828,1.1316925713228627,0.82674993130052354,-264.93619329973757,-7.1715380837016132E-002,97.402804526471257,178.08339170557568,213.12033673869050,266.80137181768384,93.164915317491307,62.123666666666665,14.601333333333343,6.2760374875218687,14.558706254747221,0.34950011093894107
20220518193000,417.68691196042323,11.058529255529930,0.83062180108268602,0,222.16065712744884,0,84.677503577233594,0,-4.7677126974474211,1,184.28446034423413,3.5015929953603209,9.8296942938831346,1.8673049629014966,1.6191560787309434,1.0866508680397917,0.86066307983050450,-237.89969285248100,-7.9865592814286193E-002,103.90810233818010,189.97715086370266,227.35412874249329,284.62039036324126,93.101582550650804,60.991999999999997,14.893333333333317,6.5864549097487224,14.865140406905368,0.48540353214344517
20220518200000,417.24656936929887,11.071004466369009,1.1869874139195433,0,277.60865362907157,0,49.947387180137490,0,-3.7505887640336217,0,176.31787605565481,4.0039302057037656,11.214673613091779,1.9366397639876198,1.8008157563856362,1.2536741229275290,1.0303989187271199,-326.52114812916210,-5.8189186546912922E-002,107.03146893856101,195.68766115588403,234.18815107755503,293.17577537214709,93.029534650824644,58.555999999999997,15.533000000000015,7.2914619989808420,15.387485671997069,0.50794898386673604
20220518203000,417.35414010281335,11.045874722025495,1.2009863426825536,0,342.98262276551492,0,95.729276402523482,0,-6.0427521642326916,1,186.97010053186671,3.5500464887847727,9.9041911464330266,1.9031548485469882,1.5489122227453360,1.1944443022484412,1.0370726467159848,-269.36080321623126,-7.0537360199166094E-002,111.83288303071986,204.46617744883346,244.69379301586997,306.32759243409419,92.984783943142361,57.627000000000002,15.739666666666665,7.5542556953540272,15.645085783216757,0.49692550822408238
20220518210000,417.45464644735830,11.137053696668655,1.7185198688661871,0,412.75843626182677,0,108.05143677944574,0,-4.8224783273331582,1,155.17866571558721,3.3228269128180119,11.596174617239498,2.2002323532554624,1.8383103974338610,1.3304099090917292,1.2417636624125015,-384.00863505156360,-4.9478054048052160E-002,118.49436028154011,216.64548243253341,259.26931044346213,324.57441065962195,92.904369795862735,56.945999999999998,16.040666666666652,7.8247994840907928,15.711506509892274,0.63291547376833435
20220518213000,416.91432974993586,11.320477574007892,0.89503974632828409,0,194.39301943780265,0,53.481121874576985,0,-2.2683801922402691,0,157.23535546672608,3.2639390362325829,11.488508289793318,1.8189814618598494,1.6952320913346459,1.0768222786331809,0.89580147708062441,-306.01073298516690,-6.2089325477747141E-002,108.07098092252515,197.58822059791342,236.46263532000961,296.02315974358152,92.860055046006948,59.301000000000002,15.654999999999973,7.2165875746587158,15.515558052910706,0.41188627256482974
20220518220000,417.71508391050389,11.370495802633595,1.0154961387948098,0,155.35293443931619,0,41.435203650335922,0,-1.3148748703191997,0,164.63361335877335,3.6993434009498749,10.743835535060754,1.8516619240795760,1.5972130904340902,1.1855197686207535,0.95296111457165233,-460.86458795116289,-4.1226860333242618E-002,105.14484941074129,192.23831895259255,230.06016943450638,288.00803219917168,92.826887159095648,62.864333333333335,14.810000000000002,6.2367247753944826,14.826182229850360,0.32654195802313685
20220518223000,417.29459651686034,11.583080583545071,0.75723452466584529,0,95.527844951933204,0,38.781756639505517,0,-1.1869143958677246,0,164.98694032964701,3.4710139104323745,8.9213518634902940,1.6710376356455083,1.4380396294701370,1.0412573221006771,0.82287737500005398,-482.40552931596352,-3.9385949881091592E-002,103.72335177562046,189.63936791217387,226.94988882048290,284.11432994973842,92.783671068793396,64.751999999999995,14.631333333333316,5.8518529130174102,14.762474454244000,0.21351990873030774